Retour au catalogue

STARLINK-3240

ActifCommunicationsVLEO
NORAD 49728·PAYLOAD·🇺🇸 United States

Lancé Dec 2, 2021 depuis Cape Canaveral Space Force Station

Loading…

Prochains Passages (prochaines 24 heures)

TLE

FraisSource: CelesTrak SupGP

Époque: Sep 14, 2026, 21:24 UTC

1 49728C 21115E   26257.89215278 -.00002605  00000+0 -76973-4 0  2571
2 49728  53.1604  15.5926 0001206  78.8591  86.1322 15.34383947    16

Suivez STARLINK-3240 en temps réel avec AllMySat

Download on the App Store